Location: Newark
(7.0858°N, 171.3717°E)
Time: 11:11:22
(UTC+00:00)

Courier 1B - Visible Passes

Search period start: 20 June 2021 00:00
Search period end: 30 June 2021 00:00
Orbit: 962 x 1209 km, 28.3° (Epoch: 19 June)

Date Brightness Start Highest point End Pass type
(mag) Time Alt. Az. Time Alt. Az. Time Alt. Az.
20 Jun 7.7 07:27:23 10° WNW 07:34:35 86° NNE 07:40:21 15° ESE visible
20 Jun 9.1 09:23:04 10° W 09:27:16 24° SW 09:27:16 24° SW visible
21 Jun 8.5 08:28:25 10° W 08:34:48 37° SSW 08:36:57 30° S visible
22 Jun 8.1 07:34:01 10° WNW 07:41:01 53° SSW 07:46:39 14° SE visible
22 Jun 9.8 09:31:59 10° WSW 09:33:34 13° SW 09:33:34 13° SW visible
22 Jun 9.8 17:18:59 10° SSE 17:20:54 11° SSE 17:22:49 10° SE visible
23 Jun 9.2 08:36:19 10° WSW 08:41:17 20° SSW 08:43:17 18° S visible
24 Jun 9.0 07:41:19 10° W 07:47:26 29° SSW 07:53:00 11° SSE visible
24 Jun 9.3 17:22:30 10° SSW 17:27:32 22° SSE 17:32:46 10° ESE visible
25 Jun 9.8 08:47:04 10° SW 08:47:57 10° SSW 08:48:51 10° SSW visible
25 Jun 9.5 16:31:35 13° S 16:33:38 15° SSE 16:37:13 10° ESE visible
26 Jun 9.6 07:49:48 10° WSW 07:53:58 16° SSW 07:57:59 10° S visible
26 Jun 8.5 17:28:13 12° SW 17:34:00 39° SSE 17:40:34 10° E visible
27 Jun 8.8 16:37:56 23° S 16:40:12 27° SSE 16:45:56 10° E visible
28 Jun 9.4 15:47:39 18° SE 15:47:39 18° SE 15:50:55 10° ESE visible
28 Jun 7.8 17:34:33 14° SW 17:40:25 72° SSE 17:47:30 10° ENE visible
29 Jun 8.0 16:44:15 35° SSW 16:46:39 51° SSE 16:53:19 10° ENE visible
